SL-14 DEB

Satellite information

Favourite Embed

Satellite Type and Status

DEBRISIN ORBIT

Key statistics

Satellite SL-14 DEB at a glance.

Uptime

12501

Days in orbit

Revolutions

≈ 12.6

Per day

Orbit

LEO

Low Earth Orbit

Inclination

82.6

Latest

Satellite identification and parameters

Extended collection of information and parameters for SL-14 DEB.

Object identification

Identified? True

Debris? True

Object name: SL-14 DEB

International designator: 1991-068R

Object number (NORAD): 26006

Object ID (CCSDS): 26006

Country: COMMONWEALTH OF INDEPENDENT STATES (CIS)

Current information (Y/N): Y

RCS size: MEDIUM

Orbital parameters

Period: 114.048 minutes

Inclination: 82.6086 deg

SMA: 7790.283 km

Apoapsis: 1485.787 km

Periapsis: 1338.508 km

RAAN: 134.7887 deg

Eccentricy: 0.0094527

Argument of periapsis: 170.2523 deg

Mean anomaly: 307.3496 deg

Mean motion: 12.6262083 rev/day

Mean motion (dot): 0.00000031 rev/day2

B* drag term: 0.00010866948 1/REarth

Two-line elements (TLE)

Creation date: Dec. 19, 2025, 2:08 a.m.

Reference frame: TEME

Reference center: EARTH

Epoch: Dec. 18, 2025, 9:33 p.m. UTC

TLE line 0: 0 SL-14 DEB

TLE line 1: 1 26006U 91068R 25352.89839314 .00000031 00000-0 10867-3 0 9999

TLE line 2: 2 26006 82.6086 134.7887 0094527 170.2523 307.3496 12.62620830206854

Live tracking on map

Real-time ground track for satellite SL-14 DEB.

In-orbit conjunctions

A list of the most updated potential collisions computed for object SL-14 DEB.

Target Orbit TCA Probability of collision Miss distance Type
COSMOS 1192 LEO 2024-06-01 18:09:59 0.01883946 22.0 (m) PAYLOAD

Associated space launch

Second generation store-dump military communications satellite

SL-14 DEB was lifted into orbit during the mission ‘Tsiklon-3 | Strela-3 67 to 72’, on board a Tsiklon-3 space rocket.

The launch took place on Sept. 28, 1991, 7:05 a.m. from 32/2.

For more information about the launch, click the button.

Launch to space Tsiklon-3 | Strela-3 67 to 72
Tsiklon-3 | Strela-3 67 to 72

Agency: N/A

Status: Launch Successful

Launch date: Sept. 28, 1991, 7:05 a.m. UTC

Rocket: Tsiklon-3

Launch pad: 32/2

Location: Plesetsk Cosmodrome, Russian Federation

...

Latest news about this satellite

There are no fresh news available about this satellite. Check back as we update our databases every day.


Newsletter sign-up

Weekly statistics, charts and insights to help you stay on top of the space industry.